DW1289 Weather Reports


time (UTC)temp
C
wind
direction
speed
KPH
gust
KPH
rain 1hr
cm
rain 24hr
cm
rain mn
cm
humidity
%
barometer
mb
20260503205016 18 248 9.7 19.3 0.00 0.00 0.00 38 1015.9
20260503204036 18 248 9.7 19.3 0.00 0.00 0.00 39 1016.2
20260503203037 18 248 9.7 19.3 0.00 0.00 0.00 38 1016.2
20260503202036 19 248 12.9 30.6 0.00 0.00 0.00 35 1016.4
20260503201036 19 248 9.7 20.9 0.00 0.00 0.00 41 1016.6
20260503200016 19 248 8.0 16.1 0.00 0.00 0.00 36 1016.8
20260503195016 19 248 9.7 25.7 0.00 0.00 0.00 37 1017.1
20260503194016 19 248 8.0 17.7 0.00 0.00 0.00 41 1017.4
20260503193016 19 248 9.7 20.9 0.00 0.00 0.00 36 1017.7
20260503192016 19 248 9.7 20.9 0.00 0.00 0.00 39 1017.9
20260503191056 18 248 9.7 22.5 0.00 0.00 0.00 37 1018.1
20260503190036 19 248 9.7 20.9 0.00 0.00 0.00 41 1018.3
20260503185016 18 248 11.3 25.7 0.00 0.00 0.00 40 1018.5
20260503184016 18 270 8.0 19.3 0.00 0.00 0.00 39 1018.6
20260503183016 18 248 8.0 22.5 0.00 0.00 0.00 40 1018.8
20260503182036 18 248 6.4 14.5 0.00 0.00 0.00 41 1019.0
20260503181016 18 248 8.0 19.3 0.00 0.00 0.00 41 1019.1
20260503180016 18 248 8.0 24.1 0.00 0.00 0.00 39 1019.1
20260503175016 18 248 8.0 17.7 0.00 0.00 0.00 41 1019.4
20260503174036 18 248 6.4 19.3 0.00 0.00 0.00 40 1019.4
20260503173016 17 248 6.4 17.7 0.00 0.00 0.00 39 1019.5
20260503172016 17 248 8.0 19.3 0.00 0.00 0.00 37 1019.8
20260503171016 17 248 8.0 20.9 0.00 0.00 0.00 38 1020.2
20260503131016 7 225 4.8 11.3 0.00 0.00 0.00 80 1021.6
20260503081016 1 0.0 0.0 0.00 0.00 0.00 81 1020.2
20260503072016 2 0.0 0.0 0.00 0.00 0.00 80 1020.0
20260503071016 2 0.0 0.0 0.00 0.00 0.00 80 1019.9
20260503055016 3 0.0 0.0 0.00 0.00 0.00 78 1020.3
20260503054016 3 0.0 0.0 0.00 0.00 0.00 76 1020.2
20260503053056 3 0.0 0.0 0.00 0.00 0.00 76 1020.2
20260503052016 4 0.0 0.0 0.00 0.00 0.00 76 1020.1
20260503051016 4 0.0 0.0 0.00 0.00 0.00 75 1020.1
20260503050016 5 0.0 0.0 0.00 0.00 0.00 75 1020.1
20260503045016 5 0.0 0.0 0.00 0.00 0.00 75 1020.2
20260503044016 5 0.0 0.0 0.00 0.00 0.00 74 1020.1
20260503043016 5 0.0 0.0 0.00 0.00 0.00 73 1020.1
20260503042016 6 0.0 0.0 0.00 0.00 0.00 73 1020.0
20260503041016 6 0.0 0.0 0.00 0.00 0.00 72 1020.0
20260503040036 6 0.0 0.0 0.00 0.00 0.00 71 1020.0
20260503035036 6 0.0 0.0 0.00 0.00 0.00 71 1020.1
20260503034037 7 0.0 0.0 0.00 0.00 0.00 70 1019.9
20260503033016 7 0.0 0.0 0.00 0.00 0.00 68 1019.9
20260503032016 7 0.0 0.0 0.00 0.00 0.00 67 1019.8
20260503031016 8 0.0 0.0 0.00 0.00 0.00 67 1019.8
20260503030017 8 0.0 0.0 0.00 0.00 0.00 66 1019.7
20260503025016 8 0.0 0.0 0.00 0.00 0.00 65 1019.7
20260503024016 9 0.0 0.0 0.00 0.00 0.00 64 1019.7
20260503023016 9 0.0 0.0 0.00 0.00 0.00 64 1019.5
20260503022016 9 0.0 0.0 0.00 0.00 0.00 64 1019.3
20260503021016 10 0.0 0.0 0.00 0.00 0.00 64 1019.4
20260503020017 10 0.0 1.6 0.00 0.00 0.00 64 1019.2
20260503015016 10 0.0 1.6 0.00 0.00 0.00 63 1019.0
20260503014056 10 315 1.6 4.8 0.00 0.00 0.00 62 1018.8
20260503013016 10 0.0 0.0 0.00 0.00 0.00 60 1018.6
20260503012016 11 0.0 1.6 0.00 0.00 0.00 59 1018.4
20260503011016 11 0.0 1.6 0.00 0.00 0.00 59 1018.2
20260503010036 11 0.0 1.6 0.00 0.00 0.00 58 1018.1
20260503005016 11 0.0 3.2 0.00 0.00 0.00 57 1018.0
20260503004036 11 0.0 3.2 0.00 0.00 0.00 56 1018.0
20260503003016 12 248 1.6 3.2 0.00 0.00 0.00 55 1017.9
20260503002016 12 248 1.6 4.8 0.00 0.00 0.00 54 1017.8
20260503001016 12 248 1.6 3.2 0.00 0.00 0.00 54 1017.6
20260503000016 12 248 1.6 4.8 0.00 0.00 0.00 53 1017.6
20260502235016 12 248 1.6 4.8 0.00 0.00 0.00 53 1017.6
20260502234016 13 270 1.6 6.4 0.00 0.00 0.00 52 1017.5
20260502233016 13 270 1.6 4.8 0.00 0.00 0.00 51 1017.5
20260502232016 13 248 1.6 6.4 0.00 0.00 0.00 51 1017.5
20260502231016 13 0 1.6 11.3 0.00 0.00 0.00 50 1017.5
20260502230016 13 248 1.6 6.4 0.00 0.00 0.00 53 1017.6
20260502225036 13 0.0 3.2 0.00 0.00 0.00 52 1017.6
20260502224036 13 248 1.6 4.8 0.00 0.00 0.00 54 1017.5
20260502223036 13 0.0 6.4 0.00 0.00 0.00 50 1017.7
20260502222017 13 45 1.6 6.4 0.00 0.00 0.00 48 1017.7
20260502221016 13 338 1.6 6.4 0.00 0.00 0.00 51 1017.6
20260502220016 13 45 3.2 8.0 0.00 0.00 0.00 51 1017.5
20260502215016 13 45 3.2 9.7 0.00 0.00 0.00 51 1017.4
20260502214036 13 248 1.6 6.4 0.00 0.00 0.00 51 1017.3
20260502213016 13 45 3.2 6.4 0.00 0.00 0.00 52 1017.4
20260502212016 13 45 1.6 4.8 0.00 0.00 0.00 58 1017.4
20260502211016 13 0.0 4.8 0.00 0.00 0.00 57 1017.5
20260502210016 13 270 1.6 4.8 0.00 0.00 0.00 55 1017.5